AEROCUBE 8D

Last updated on Fri Jul 11 2025 00:03:42 GMT+0000 (Coordinated Universal Time)

1 41852U 16067E 25191.51080859 .00004108 00000+0 20609-3 0 9996 2 41852 98.1079 31.4419 0003066 215.3320 144.7710 15.17953753474127
UTC large
Height (km)
Speed (km/s)
/
Latitude / Longitude
Inclination (degrees)
Orbital Period (minutes)
Azimuth
Elevation
Range (km)
Doppler Factor

Next 0 passes for location: London (51.5072 / 0.1276)

Sorry there are no passes over London.